Location: Poigny-la-Forêt
(48.6876°N, 1.7701°E)
Time: 00:57:55
(UTC+02:00)

ISS - Pass Details

Date: 30 March 2019
Orbit: 408 x 410 km, 51.6° (Epoch: 22 April)

Event Time Altitude Azimuth Distance (km) Brightness Sun altitude
Rises 22:25:34 0° 291° (WNW) 2,339 1.0 -27.9°
Reaches altitude 10° 22:27:39 10° 289° (WNW) 1,475 -0.2 -28.1°
Enters shadow 22:28:22 15° 287° (WNW) 1,189 -0.8 -28.2°
